DW3979 Weather Reports


Display with metric or nautical units.
time (UTC)temp
F
wind
direction
speed
MPH
gust
MPH
rain 1hr
in
rain 24hr
in
rain mn
in
humidity
%
barometer
mb
20260902164352 80 216 2.0 4.0 0.00 0.27 0.00 47 1022.2
20260902163849 80 201 1.0 4.0 0.00 0.27 0.00 49 1022.1
20260902163348 80 129 1.0 3.0 0.00 0.27 0.00 52 1022.2
20260902162848 79 140 2.0 4.0 0.00 0.27 0.00 49 1022.1
20260902162348 79 196 2.0 4.0 0.00 0.27 0.00 49 1022.1
20260902161848 79 150 2.0 4.0 0.00 0.27 0.00 51 1022.1
20260902160848 79 81 0.0 5.0 0.00 0.27 0.00 61 1022.1
20260902160346 78 68 0.0 2.0 0.00 0.27 0.00 62 1022.1
20260902155846 78 57 0.0 2.0 0.00 0.27 0.00 62 1021.9
20260902155346 78 15 0.0 0.0 0.00 0.27 0.00 61 1021.9
20260902154843 78 19 0.0 0.0 0.00 0.27 0.00 61 1022.1
20260902153842 77 5 0.0 0.0 0.00 0.27 0.00 63 1021.9
20260902153342 77 5 0.0 0.0 0.00 0.27 0.00 63 1021.9
20260902152842 76 5 0.0 0.0 0.00 0.27 0.00 66 1022.1
20260902151836 76 5 0.0 1.0 0.00 0.27 0.00 66 1022.1
20260902151337 76 5 0.0 1.0 0.00 0.27 0.00 69 1021.9
20260902150835 75 5 0.0 2.0 0.00 0.27 0.00 67 1021.9
20260902145834 75 301 0.0 0.0 0.00 0.27 0.00 68 1021.9
20260902145334 75 301 0.0 0.0 0.00 0.27 0.00 68 1021.9
20260902144832 74 209 0.0 0.0 0.00 0.27 0.00 68 1021.9
20260902143831 72 209 0.0 0.0 0.00 0.27 0.00 71 1021.9
20260902143328 72 209 0.0 0.0 0.00 0.27 0.00 71 1021.9
20260902142828 71 209 0.0 0.0 0.00 0.27 0.00 72 1021.9
20260902142327 71 209 0.0 0.0 0.00 0.27 0.00 73 1021.9
20260902141826 71 209 0.0 0.0 0.00 0.27 0.00 74 1021.8
20260902140824 70 209 0.0 3.0 0.00 0.27 0.00 77 1021.7
20260902140318 69 209 0.0 3.0 0.00 0.27 0.00 76 1021.7
20260902135820 69 84 0.0 0.0 0.00 0.27 0.00 75 1021.6
20260902135315 68 355 0.0 0.0 0.00 0.27 0.00 76 1021.5
20260902134811 68 355 0.0 0.0 0.00 0.27 0.00 77 1021.5
20260902133808 68 355 0.0 3.0 0.00 0.27 0.00 77 1021.4
20260902133308 68 355 0.0 3.0 0.00 0.27 0.00 77 1021.4
20260902132306 68 355 0.0 0.0 0.00 0.27 0.00 76 1021.1
20260902131804 68 355 0.0 0.0 0.00 0.27 0.00 75 1021.1
20260902131302 69 355 0.0 3.0 0.00 0.27 0.00 73 1021.0
20260902130802 69 0 1.0 3.0 0.00 0.27 0.00 72 1021.0
20260902130302 70 0 0.0 3.0 0.00 0.27 0.00 72 1021.0
20260902125805 70 198 0.0 2.0 0.00 0.27 0.00 71 1021.0
20260902125305 70 198 0.0 2.0 0.00 0.27 0.00 71 1021.0
20260902124802 70 198 1.0 4.0 0.00 0.27 0.00 71 1020.9
20260902124300 71 198 2.0 4.0 0.00 0.27 0.00 71 1020.8
20260902123758 71 209 2.0 4.0 0.00 0.27 0.00 71 1020.8
20260902123252 70 209 2.0 4.0 0.00 0.27 0.00 71 1020.7
20260902122752 70 209 2.0 3.0 0.00 0.27 0.00 72 1020.7
20260902122252 70 209 2.0 3.0 0.00 0.27 0.00 72 1020.7
20260902121752 70 209 2.0 3.0 0.00 0.27 0.00 71 1020.7
20260902120750 70 209 2.0 4.0 0.00 0.27 0.00 71 1020.7
20260902120248 70 209 2.0 4.0 0.00 0.27 0.00 71 1020.7
20260902115750 70 206 1.0 4.0 0.00 0.27 0.00 71 1020.6
20260902115242 70 182 1.0 4.0 0.00 0.27 0.00 71 1020.7
20260902114740 70 182 1.0 4.0 0.00 0.27 0.00 73 1020.7
20260902114240 69 203 1.0 3.0 0.00 0.27 0.00 73 1020.6
20260902112739 69 200 0.0 0.0 0.00 0.27 0.00 73 1020.7
20260902112240 69 200 0.0 0.0 0.00 0.27 0.00 73 1020.7
20260902111740 69 200 0.0 0.0 0.00 0.27 0.00 72 1020.7
20260902110742 69 200 0.0 0.0 0.00 0.27 0.00 72 1020.7
20260902110240 69 200 0.0 0.0 0.00 0.27 0.00 71 1020.8
20260902105235 70 200 0.0 1.0 0.00 0.27 0.00 71 1020.7
20260902104734 70 200 0.0 1.0 0.00 0.27 0.00 71 1020.7
20260902104232 71 200 0.0 0.0 0.00 0.27 0.00 69 1020.8
20260902103730 71 200 0.0 0.0 0.00 0.27 0.00 68 1020.7
20260902103230 72 200 0.0 0.0 0.00 0.27 0.00 67 1020.7
20260902102728 72 200 0.0 2.0 0.00 0.27 0.00 67 1020.7
20260902101726 72 200 1.0 3.0 0.00 0.27 0.00 66 1020.6
20260902101226 72 200 1.0 3.0 0.00 0.27 0.00 66 1020.7
20260902100726 72 200 1.0 2.0 0.00 0.27 0.00 65 1020.7
20260902100226 72 200 1.0 3.0 0.00 0.27 0.00 65 1020.7
20260902095726 73 200 1.0 3.0 0.00 0.27 0.00 65 1020.8
20260902095226 73 200 1.0 3.0 0.00 0.27 0.00 65 1020.8
20260902094726 73 200 2.0 4.0 0.00 0.27 0.00 64 1020.8
20260902094224 73 194 2.0 4.0 0.00 0.27 0.00 64 1020.8
20260902085220 74 196 2.0 5.0 0.00 0.27 0.00 61 1020.8
20260902084718 74 235 2.0 5.0 0.00 0.27 0.00 61 1020.7
20260902084216 74 203 3.0 6.0 0.00 0.27 0.00 61 1020.7
20260902083716 74 209 3.0 7.0 0.00 0.27 0.00 62 1020.7
20260902083216 73 180 3.0 7.0 0.00 0.27 0.00 63 1020.8
20260902082715 73 192 3.0 6.0 0.00 0.27 0.00 65 1020.8
20260902082214 72 182 1.0 6.0 0.00 0.27 0.00 66 1020.9
20260902081712 72 192 0.0 4.0 0.00 0.27 0.00 65 1020.9
20260902080706 73 202 0.0 0.0 0.00 0.27 0.00 63 1020.9
20260902080204 74 202 0.0 0.0 0.00 0.27 0.00 62 1021.0
20260902075707 74 202 0.0 2.0 0.00 0.27 0.00 60 1021.0
20260902075202 74 202 1.0 2.0 0.00 0.27 0.00 60 1020.9
20260902074700 74 202 2.0 4.0 0.00 0.27 0.00 60 1020.9
20260902074200 74 202 1.0 4.0 0.00 0.27 0.00 60 1020.9
20260902073700 74 208 1.0 4.0 0.00 0.27 0.00 59 1020.9
20260902073158 73 207 2.0 3.0 0.00 0.27 0.00 60 1020.9
20260902072656 74 209 1.0 3.0 0.00 0.27 0.00 61 1020.9
20260902072156 74 209 2.0 4.0 0.00 0.27 0.00 60 1020.9
20260902071654 73 209 2.0 4.0 0.00 0.27 0.00 61 1020.8
20260902071152 73 209 1.0 3.0 0.00 0.27 0.00 60 1020.9
20260902070652 72 209 1.0 3.0 0.00 0.27 0.00 62 1020.8
20260902070146 71 209 0.0 3.0 0.00 0.27 0.00 63 1020.8
20260902065643 72 209 0.0 0.0 0.00 0.27 0.27 65 1020.8
20260902065143 72 209 0.0 0.0 0.00 0.27 0.27 64 1020.8
20260902064642 72 209 0.0 0.0 0.00 0.27 0.27 64 1020.8
20260902064143 72 209 0.0 0.0 0.00 0.27 0.27 63 1020.9
20260902063643 72 209 0.0 0.0 0.00 0.27 0.27 63 1021.0
20260902061634 72 209 1.0 2.0 0.00 0.27 0.27 61 1021.0
20260902061134 73 209 0.0 2.0 0.00 0.27 0.27 61 1021.0
20260902060635 73 209 0.0 2.0 0.00 0.27 0.27 61 1020.9
20260902055636 73 209 0.0 1.0 0.00 0.27 0.27 60 1021.0
20260902054632 74 209 1.0 2.0 0.00 0.27 0.27 59 1021.0
20260902054130 74 209 1.0 4.0 0.00 0.27 0.27 59 1021.1
20260902053631 74 209 2.0 4.0 0.00 0.27 0.27 59 1021.0
20260902053131 74 202 1.0 3.0 0.00 0.27 0.27 59 1021.0
20260902052129 73 217 0.0 0.0 0.00 0.27 0.27 60 1021.0
20260902051127 73 217 0.0 2.0 0.00 0.27 0.27 58 1020.9
20260902050627 73 217 0.0 2.0 0.00 0.27 0.27 59 1021.0
20260902050124 72 217 0.0 1.0 0.00 0.27 0.27 61 1020.9
20260902045624 72 217 0.0 3.0 0.00 0.27 0.27 61 1021.0
20260902045125 72 217 0.0 3.0 0.00 0.27 0.27 61 1021.0
20260902044623 73 217 1.0 3.0 0.00 0.27 0.27 61 1021.0
20260902044123 73 217 1.0 3.0 0.00 0.27 0.27 61 1020.9
20260902042619 74 266 1.0 2.0 0.00 0.27 0.27 59 1020.9
20260902042119 74 266 1.0 2.0 0.00 0.27 0.27 59 1020.9
20260902041618 74 288 0.0 2.0 0.00 0.27 0.27 57 1020.8
20260902041119 74 227 1.0 3.0 0.00 0.27 0.27 57 1020.8
20260902040618 74 286 1.0 3.0 0.00 0.27 0.27 59 1020.7
20260902035114 74 276 0.0 1.0 0.00 0.27 0.27 61 1020.5
20260902034615 74 276 0.0 0.0 0.00 0.27 0.27 61 1020.5
20260902034114 74 276 0.0 0.0 0.00 0.27 0.27 61 1020.5
20260902033112 74 276 0.0 2.0 0.00 0.27 0.27 59 1020.2
20260902032610 75 276 0.0 2.0 0.00 0.27 0.27 59 1020.1
20260902032108 75 203 0.0 0.0 0.00 0.27 0.27 59 1020.1
20260902031606 75 203 0.0 0.0 0.00 0.27 0.27 58 1020.0
20260902031106 76 203 0.0 0.0 0.00 0.27 0.27 58 1019.9
20260902030607 76 203 1.0 3.0 0.00 0.27 0.27 57 1019.8
20260902030105 76 203 1.0 4.0 0.00 0.27 0.27 56 1019.7
20260902025603 76 203 1.0 5.0 0.00 0.27 0.27 56 1019.7
20260902025102 76 203 2.0 6.0 0.00 0.27 0.27 56 1019.7
20260902024105 75 206 2.0 7.0 0.00 0.27 0.27 56 1019.4
20260902023605 75 222 1.0 7.0 0.00 0.27 0.27 56 1019.4
20260902023102 75 17 0.0 4.0 0.00 0.27 0.27 57 1019.3
20260902022603 76 158 0.0 4.0 0.00 0.27 0.27 53 1019.3
20260902022103 76 232 0.0 2.0 0.00 0.27 0.27 55 1019.3
20260902021600 76 232 1.0 5.0 0.00 0.27 0.27 55 1019.3
20260902015556 77 225 2.0 4.0 0.00 0.27 0.27 52 1019.0
20260902015057 77 212 2.0 4.0 0.00 0.27 0.27 50 1019.0
20260902014056 77 267 2.0 6.0 0.00 0.27 0.27 49 1018.9
20260902013557 78 268 2.0 6.0 0.00 0.27 0.27 48 1019.0
20260902013057 77 207 2.0 5.0 0.00 0.27 0.27 50 1019.0
20260902012555 77 226 2.0 5.0 0.00 0.27 0.27 48 1019.1
20260902012055 77 228 2.0 4.0 0.00 0.27 0.27 48 1019.1
20260902011554 77 223 2.0 4.0 0.00 0.27 0.27 50 1019.0
20260902011054 77 225 2.0 4.0 0.00 0.27 0.27 54 1019.1
20260902010053 77 267 1.0 3.0 0.00 0.27 0.27 53 1019.1
20260902005553 77 222 1.0 3.0 0.00 0.27 0.27 53 1019.1
20260902005052 77 238 1.0 3.0 0.00 0.27 0.27 54 1019.1
20260902004553 77 241 2.0 3.0 0.00 0.27 0.27 52 1019.1
20260902004053 78 230 1.0 5.0 0.00 0.27 0.27 55 1019.1
20260902003053 76 248 1.0 3.0 0.01 0.27 0.27 61 1019.2
20260902002552 76 246 0.0 3.0 0.01 0.27 0.27 65 1019.2
20260902002052 75 271 1.0 4.0 0.03 0.27 0.27 68 1019.2
20260902001553 75 267 1.0 4.0 0.06 0.27 0.27 65 1019.2
20260902001052 75 242 1.0 4.0 0.06 0.27 0.27 66 1019.2
20260902000552 74 215 1.0 4.0 0.06 0.27 0.27 73 1019.2
20260902000053 74 203 1.0 3.0 0.06 0.27 0.27 74 1019.2
20260901235552 73 246 0.0 3.0 0.06 0.27 0.27 76 1019.2
20260901235053 71 234 1.0 4.0 0.06 0.27 0.27 81 1019.4
20260901234553 69 278 2.0 4.0 0.06 0.27 0.27 83 1019.3
20260901234052 68 280 2.0 4.0 0.07 0.27 0.27 83 1019.4
20260901233552 68 260 3.0 9.0 0.08 0.27 0.27 81 1019.4
20260901233052 68 252 3.0 9.0 0.12 0.26 0.27 80 1019.6
20260901232552 69 290 4.0 11.0 0.13 0.26 0.26 81 1019.4
20260901232052 70 302 3.0 11.0 0.11 0.24 0.24 78 1019.7
20260901231552 70 246 1.0 4.0 0.09 0.21 0.22 81 1019.8
20260901231052 70 227 0.0 3.0 0.14 0.21 0.21 86 1019.6
20260901230053 69 275 0.0 0.0 0.17 0.21 0.21 88 1019.7
20260901225552 69 275 0.0 0.0 0.21 0.21 0.21 89 1019.8
20260901225053 68 275 1.0 4.0 0.21 0.21 0.21 89 1019.7
20260901224552 68 275 1.0 4.0 0.21 0.21 0.21 88 1019.7
20260901224052 67 273 1.0 4.0 0.20 0.20 0.20 86 1019.9
20260901223049 67 318 2.0 5.0 0.14 0.14 0.16 83 1020.2
20260901222548 67 275 3.0 16.0 0.13 0.13 0.13 80 1020.1
20260901222048 68 304 3.0 16.0 0.13 0.13 0.13 78 1020.2
20260901221549 69 313 3.0 7.0 0.12 0.12 0.12 77 1020.0
20260901221048 68 252 3.0 7.0 0.07 0.07 0.07 74 1020.5
20260901220549 69 221 5.0 16.0 0.06 0.06 0.06 66 1020.6
20260901220048 73 232 5.0 16.0 0.04 0.04 0.04 54 1020.9
20260901215549 82 225 3.0 9.0 0.00 0.00 0.00 52 1020.7
20260901215048 83 210 2.0 5.0 0.00 0.00 0.00 45 1020.1
20260901214548 83 217 3.0 7.0 0.00 0.00 0.00 43 1020.0
20260901214049 84 175 4.0 8.0 0.00 0.00 0.00 41 1020.0
20260901213548 84 194 4.0 8.0 0.00 0.00 0.00 41 1020.1
20260901213049 86 203 3.0 8.0 0.00 0.00 0.00 40 1020.0
20260901212549 86 194 3.0 7.0 0.00 0.00 0.00 41 1020.1
20260901212049 86 213 4.0 8.0 0.00 0.00 0.00 42 1020.2
20260901211548 86 204 4.0 8.0 0.00 0.00 0.00 41 1020.2
20260901211048 85 186 4.0 10.0 0.00 0.00 0.00 42 1020.2
20260901210048 86 177 4.0 9.0 0.00 0.00 0.00 39 1020.5
20260901205048 86 172 4.0 10.0 0.00 0.00 0.00 40 1020.6
20260901204549 87 190 4.0 10.0 0.00 0.00 0.00 40 1020.6
20260901204048 86 157 3.0 7.0 0.00 0.00 0.00 41 1020.6
20260901203549 86 218 4.0 11.0 0.00 0.00 0.00 39 1020.6
20260901202548 86 180 4.0 8.0 0.00 0.00 0.00 40 1020.7
20260901202048 86 238 4.0 8.0 0.00 0.00 0.00 41 1020.7
20260901201049 86 189 3.0 7.0 0.00 0.00 0.00 42 1020.9
20260901200548 86 188 3.0 6.0 0.00 0.00 0.00 43 1020.9
20260901200049 86 179 3.0 6.0 0.00 0.00 0.00 43 1021.0
20260901195549 85 173 3.0 8.0 0.00 0.00 0.00 42 1021.1
20260901195045 85 190 3.0 9.0 0.00 0.00 0.00 43 1021.4
20260901194542 85 186 3.0 9.0 0.00 0.00 0.00 43 1021.4
20260901193542 84 215 2.0 7.0 0.00 0.00 0.00 45 1021.6
20260901192042 83 143 3.0 6.0 0.00 0.00 0.00 45 1021.8
20260901191543 83 165 3.0 6.0 0.00 0.00 0.00 46 1021.9
20260901191043 83 226 2.0 6.0 0.00 0.00 0.00 47 1021.9
20260901190542 83 86 1.0 3.0 0.00 0.00 0.00 47 1021.8
20260901190042 84 109 1.0 3.0 0.00 0.00 0.00 46 1022.1
20260901185542 84 57 1.0 3.0 0.00 0.00 0.00 45 1022.1
20260901185042 85 130 0.0 2.0 0.00 0.00 0.00 47 1022.2
20260901184540 85 15 1.0 4.0 0.00 0.00 0.00 48 1022.2
20260901184037 85 56 1.0 4.0 0.00 0.00 0.00 47 1022.2
20260901183034 84 119 1.0 3.0 0.00 0.00 0.00 48 1022.4
20260901182530 84 179 1.0 3.0 0.00 0.00 0.00 49 1022.4
20260901182028 83 143 1.0 3.0 0.00 0.00 0.00 49 1022.5
20260901181528 83 13 1.0 3.0 0.00 0.00 0.00 51 1022.5
20260901181027 82 152 1.0 3.0 0.00 0.00 0.00 51 1022.6
20260901180524 82 169 1.0 3.0 0.00 0.00 0.00 52 1022.6
20260901180023 81 178 1.0 2.0 0.00 0.00 0.00 52 1022.7
20260901174514 80 28 0.0 4.0 0.00 0.00 0.00 55 1022.7
20260901174017 80 119 0.0 2.0 0.00 0.00 0.00 53 1022.8
20260901173514 80 81 1.0 2.0 0.00 0.00 0.00 55 1022.8
20260901173012 80 138 1.0 2.0 0.00 0.00 0.00 55 1022.8
20260901172511 80 96 1.0 2.0 0.00 0.00 0.00 55 1022.8
20260901172010 79 129 1.0 2.0 0.00 0.00 0.00 56 1022.8
20260901171505 79 129 0.0 2.0 0.00 0.00 0.00 57 1022.8
20260901171004 78 81 0.0 2.0 0.00 0.00 0.00 57 1022.8
20260901170002 78 77 0.0 2.0 0.00 0.00 0.00 56 1022.7